1998-067VZ

Last updated on Wed Nov 01 2023 00:02:07 GMT+0000 (Coordinated Universal Time)

1 58173U 98067VZ 23304.36634141 .00735772 00000+0 90259-2 0 9991 2 58173 51.6340 13.8511 0009193 37.3701 56.2637 15.57251982 876

Satellite not in orbit